Haines, AK

11:43 PM AKST on December 12, 2017 (GMT -0900)
Haines

Weather History for PAHN - January, 2014

Change the Weather History Date:

Tuesday, January 21, 2014

  Actual Average Record
Temperature  
Mean Temperature 34 °F -  
Max Temperature 35 °F 25 °F 45 °F (2015)
Min Temperature 32 °F 18 °F -3 °F (1982)
Degree Days  
Heating Degree Days 32    
Moisture  
Dew Point 31 °F    
Average Humidity 94    
Maximum Humidity 96    
Minimum Humidity 87    
Precipitation  
Precipitation 0.06 in - - ()
Sea Level Pressure  
Sea Level Pressure 30.07 in    
Wind  
Wind Speed 7 mph (WNW)    
Max Wind Speed 14 mph    
Max Gust Speed -    
Visibility 9 miles    
Events Rain , Snow    
Averages and records for this station are not official NWS values.
T = Trace of Precipitation, MM = Missing Value Source: NWS Daily Summary

Daily Weather History Graph

Daily Weather History Graph

Search for Another Location

Airport or City:

Trip Planner

Search our weather history database for the weather conditions in past years. The results will help you decide how hot, cold, wet, or windy it might be!

Date:

Astronomy

Jan. 21, 2014 Rise Set
Actual Time 8:33 AM AKST 3:53 PM AKST
Civil Twilight 7:44 AM AKST 4:42 PM AKST
Nautical Twilight 6:53 AM AKST 5:34 PM AKST
Astronomical Twilight 6:05 AM AKST 6:22 PM AKST
Moon 11:09 PM AKST (1/21) 9:40 AM AKST (1/21)
Length of Visible Light 8h 58m
Length of Day
7h 20m
Waning Gibbous, 73% of the Moon is Illuminated
Jan 21
Waning Gibbous
Jan 23
Last Quarter
Jan 30
New
Feb 6
First Quarter
Feb 14
Full

Hourly Weather History & Observations

Time (AKST) Temp. Windchill Dew Point Humidity Pressure Visibility Wind Dir Wind Speed Gust Speed Precip Events Conditions
12:54 AM 33.1 °F 27.7 °F 30.0 °F 89% 30.14 in 10.0 mi West 5.8 mph - N/A   Overcast
1:54 AM 32.0 °F 28.7 °F 30.9 °F 96% 30.13 in 6.0 mi South 3.5 mph - 0.00 in Snow Light Snow
2:54 AM 33.1 °F - 30.9 °F 92% 30.14 in 7.0 mi Calm Calm - 0.01 in Snow Light Snow
3:04 AM 34.0 °F 31.0 °F 30.9 °F 89% 30.12 in 6.0 mi ESE 3.5 mph - 0.00 in Snow Light Snow
3:45 AM 35.1 °F - 33.1 °F 92% 30.11 in 10.0 mi Calm Calm - 0.00 in   Overcast
3:54 AM 35.1 °F - 33.1 °F 92% 30.12 in 10.0 mi Calm Calm - 0.00 in   Overcast
4:54 AM 33.1 °F - 32.0 °F 96% 30.11 in 4.0 mi Calm Calm - 0.00 in   Overcast
5:54 AM 32.0 °F 23.6 °F 30.9 °F 96% 30.11 in 9.0 mi WNW 10.4 mph - 0.01 in   Overcast
6:26 AM 32.0 °F 24.2 °F 30.9 °F 96% 30.09 in 8.0 mi WNW 9.2 mph - 0.00 in Rain Light Freezing Rain
6:54 AM 32.0 °F 25.6 °F 30.9 °F 96% 30.09 in 10.0 mi WNW 6.9 mph - 0.01 in Rain Light Freezing Rain
7:04 AM 32.0 °F 25.6 °F 30.9 °F 96% 30.08 in 10.0 mi WNW 6.9 mph - 0.00 in Rain Light Freezing Rain
7:40 AM 32.0 °F 24.2 °F 30.9 °F 96% 30.07 in 10.0 mi WNW 9.2 mph - 0.00 in Rain Light Freezing Rain
7:54 AM 33.1 °F 23.9 °F 30.9 °F 92% 30.07 in 10.0 mi WNW 12.7 mph - 0.01 in Rain Light Freezing Rain
8:11 AM 32.0 °F 22.1 °F 30.9 °F 96% 30.07 in 8.0 mi WNW 13.8 mph - 0.00 in Rain Light Freezing Rain
8:31 AM 32.0 °F 23.0 °F 30.9 °F 96% 30.07 in 10.0 mi WNW 11.5 mph - 0.00 in   Overcast
8:54 AM 32.0 °F 23.0 °F 30.9 °F 96% 30.08 in 10.0 mi WNW 11.5 mph - 0.01 in Rain Light Freezing Rain
9:16 AM 32.0 °F 24.2 °F 30.9 °F 96% 30.07 in 10.0 mi WNW 9.2 mph - 0.00 in Rain Light Freezing Rain
9:26 AM 33.1 °F 25.5 °F 30.9 °F 92% 30.07 in 9.0 mi WNW 9.2 mph - 0.00 in Rain Light Rain
9:54 AM 32.0 °F 22.5 °F 30.9 °F 96% 30.07 in 9.0 mi West 12.7 mph - 0.01 in   Overcast
10:54 AM 33.1 °F 23.9 °F 30.9 °F 92% 30.07 in 10.0 mi WNW 12.7 mph - 0.00 in   Overcast
11:54 AM 33.1 °F 25.5 °F 32.0 °F 96% 30.06 in 10.0 mi West 9.2 mph - 0.00 in   Overcast
12:20 PM 34.0 °F 26.0 °F 32.0 °F 92% 30.04 in 10.0 mi WNW 10.4 mph - 0.00 in Rain Light Rain
12:50 PM 33.8 °F 24.8 °F 30.2 °F 87% 30.04 in 10.0 mi WNW 12.7 mph - 0.00 in Rain Light Rain
12:54 PM 33.1 °F 23.9 °F 30.9 °F 92% 30.05 in 10.0 mi WNW 12.7 mph - 0.00 in   Overcast
1:54 PM 34.0 °F 25.0 °F 32.0 °F 92% 30.04 in 10.0 mi West 12.7 mph - 0.00 in   Overcast
2:54 PM 33.1 °F 24.4 °F 32.0 °F 96% 30.03 in 10.0 mi WNW 11.5 mph - 0.00 in   Overcast
3:54 PM 34.0 °F 25.5 °F 32.0 °F 92% 30.01 in 10.0 mi WNW 11.5 mph - N/A   Overcast
4:54 PM 34.0 °F 25.5 °F 32.0 °F 92% 30.02 in 10.0 mi WNW 11.5 mph - N/A   Overcast
5:54 PM 33.1 °F 25.5 °F 32.0 °F 96% 30.02 in 10.0 mi WNW 9.2 mph - N/A   Scattered Clouds
6:54 PM 33.1 °F 25.5 °F 30.9 °F 92% 30.02 in 10.0 mi WNW 9.2 mph - N/A   Clear
7:54 PM 33.1 °F 28.7 °F 32.0 °F 96% 30.02 in 10.0 mi WNW 4.6 mph - N/A   Overcast
8:54 PM 33.1 °F 26.9 °F 32.0 °F 96% 30.03 in 10.0 mi WNW 6.9 mph - N/A   Overcast
9:54 PM 33.1 °F 24.4 °F 30.9 °F 92% 30.04 in 10.0 mi WNW 11.5 mph - N/A   Overcast
10:54 PM 34.0 °F 26.0 °F 32.0 °F 92% 30.05 in 10.0 mi WNW 10.4 mph - N/A   Mostly Cloudy
11:54 PM 35.1 °F 27.9 °F 32.0 °F 89% 30.06 in 10.0 mi West 9.2 mph - N/A   Overcast